Date String (YYYY-MM-DD hh:mm:ss) UTC,Instrument flags,Ambient pressure (hPa),Sample flow (lpm),Bypass flow (lpm),Sample temperature (°C),Ambient temperature (°C),ASC tube jacket temperature (°C),LED temperature (°C),Box temperature (°C),Sample RH (%),Span deviation,Mass concentration (μg/m³),Mass concentration (μg/m³),Mass concentration (μg/m³)
DateTimeUTC,F1_M11,P_M11,Q1_M11,Q2_M11,T1_M11,T2_M11,T3_M11,T4_M11,T5_M11,U1_M11,ZSPAN_M11,X0_M11,X2_M11,X1_M11
2022-06-14 19:00:00,,0820.6,5.01,0.00,29.6,28.0,00.0,38.5,31.4,20.0,0000.0,0019.41,0007.15,0003.47
2022-06-14 19:01:00,,0820.6,5.00,0.00,29.6,28.1,00.0,38.5,31.5,20.0,0000.0,0019.14,0007.19,0003.48
2022-06-14 19:02:00,,0820.6,4.99,0.00,29.6,28.2,00.0,38.5,31.5,20.0,0000.0,0019.04,0007.14,0003.49
2022-06-14 19:03:00,,0820.6,5.01,0.00,29.6,28.4,00.0,38.5,31.5,20.0,0000.0,0019.84,0007.10,0003.47
2022-06-14 19:04:00,,0820.6,5.00,0.00,29.7,28.5,00.0,38.5,31.5,20.0,0000.0,0020.39,0007.04,0003.47
2022-06-14 19:05:00,,0820.6,5.01,0.00,29.7,28.6,00.0,38.5,31.6,19.9,0000.0,0020.23,0007.01,0003.47
2022-06-14 19:06:00,,0820.6,5.00,0.00,29.7,28.7,00.0,38.5,31.6,19.9,0000.0,0020.14,0006.96,0003.46
2022-06-14 19:07:00,,0820.6,4.98,0.00,29.7,28.7,00.0,38.5,31.7,19.9,0000.0,0020.39,0006.89,0003.45
2022-06-14 19:08:00,,0820.6,5.02,0.00,29.8,28.8,00.0,38.6,31.7,19.8,0000.0,0020.85,0006.83,0003.43
2022-06-14 19:09:00,,0820.6,5.00,0.00,29.8,28.9,00.0,38.6,31.7,19.8,0000.0,0020.89,0006.76,0003.42
2022-06-14 19:10:00,,0820.5,5.00,0.00,29.8,29.0,00.0,38.6,31.8,19.8,0000.0,0021.18,0006.75,0003.41
2022-06-14 19:11:00,,0820.4,5.01,0.00,29.8,29.0,00.0,38.6,31.8,19.8,0000.0,0021.51,0006.75,0003.39
2022-06-14 19:12:00,,0820.3,4.99,0.00,29.9,28.8,00.0,38.6,31.7,19.8,0000.0,0022.16,0006.75,0003.38
2022-06-14 19:13:00,,0820.3,5.00,0.00,29.8,28.1,00.0,38.5,31.5,19.7,0000.0,0022.86,0006.74,0003.37
2022-06-14 19:14:00,,0820.4,4.99,0.00,29.7,27.9,00.0,38.5,31.4,19.8,0000.0,0022.55,0006.87,0003.38
2022-06-14 19:15:00,,0820.4,5.00,0.00,29.7,27.9,00.0,38.5,31.4,20.0,0000.0,0022.75,0006.94,0003.39
2022-06-14 19:16:00,,0820.4,5.01,0.00,29.7,28.0,00.0,38.5,31.4,20.0,0000.0,0023.08,0006.94,0003.38
2022-06-14 19:17:00,,0820.3,4.99,0.00,29.7,28.1,00.0,38.5,31.5,20.3,0000.0,0023.97,0007.00,0003.39
2022-06-14 19:18:00,,0820.3,5.00,0.00,29.7,28.2,00.0,38.5,31.5,20.4,0000.0,0023.57,0007.03,0003.38
2022-06-14 19:19:00,,0820.3,5.01,0.00,29.7,28.3,00.0,38.5,31.5,20.3,0000.0,0023.80,0007.02,0003.39
2022-06-14 19:20:00,,0820.3,5.00,0.00,29.7,28.4,00.0,38.5,31.6,20.4,0000.0,0024.06,0007.12,0003.40
2022-06-14 19:21:00,,0820.3,5.00,0.00,29.7,28.5,00.0,38.5,31.6,20.5,0000.0,0023.71,0007.18,0003.42
2022-06-14 19:22:00,,0820.4,5.00,0.00,29.7,28.6,00.0,38.5,31.6,20.3,0000.0,0023.30,0007.15,0003.43
2022-06-14 19:23:00,,0820.4,4.99,0.00,29.7,28.7,00.0,38.6,31.7,20.3,0000.0,0023.23,0007.13,0003.43
2022-06-14 19:24:00,,0820.5,5.00,0.00,29.8,28.8,00.0,38.6,31.7,20.3,0000.0,0022.07,0007.11,0003.43
2022-06-14 19:25:00,,0820.4,5.00,0.00,29.8,28.9,00.0,38.6,31.8,20.3,0000.0,0022.25,0007.09,0003.44
2022-06-14 19:26:00,,0820.3,4.99,0.00,29.8,29.0,00.0,38.6,31.8,20.3,0000.0,0021.73,0007.12,0003.44
2022-06-14 19:27:00,,0820.3,4.99,0.00,29.8,28.6,00.0,38.6,31.7,20.4,0000.0,0021.35,0007.12,0003.44
2022-06-14 19:28:00,,0820.2,5.01,0.00,29.8,28.0,00.0,38.5,31.5,20.2,0000.0,0020.86,0007.08,0003.42
2022-06-14 19:29:00,,0820.3,5.00,0.00,29.7,27.8,00.0,38.5,31.4,20.1,0000.0,0020.61,0007.06,0003.42
2022-06-14 19:30:00,,0820.3,4.99,0.00,29.7,27.8,00.0,38.5,31.4,20.2,0000.0,0020.04,0007.19,0003.40
2022-06-14 19:31:00,,0820.3,5.00,0.00,29.7,27.9,00.0,38.5,31.4,20.2,0000.0,0020.08,0007.16,0003.40
2022-06-14 19:32:00,,0820.2,5.00,0.00,29.6,28.0,00.0,38.5,31.5,20.1,0000.0,0020.49,0007.17,0003.38
2022-06-14 19:33:00,,0820.2,5.01,0.00,29.6,28.2,00.0,38.5,31.5,19.9,0000.0,0020.52,0007.19,0003.38
2022-06-14 19:34:00,,0820.0,5.00,0.00,29.7,28.3,00.0,38.5,31.5,20.0,0000.0,0020.43,0007.18,0003.39
2022-06-14 19:35:00,,0820.1,5.00,0.00,29.7,28.4,00.0,38.5,31.6,20.0,0000.0,0020.71,0007.22,0003.38
2022-06-14 19:36:00,,0820.0,5.00,0.00,29.7,28.5,00.0,38.5,31.6,19.8,0000.0,0020.23,0007.13,0003.36
2022-06-14 19:37:00,,0820.0,4.99,0.00,29.7,28.6,00.0,38.5,31.7,19.9,0000.0,0020.29,0007.06,0003.37
2022-06-14 19:38:00,,0820.1,5.01,0.00,29.7,28.7,00.0,38.6,31.7,19.8,0000.0,0020.22,0007.05,0003.37
2022-06-14 19:39:00,,0820.0,4.99,0.00,29.8,28.8,00.0,38.6,31.7,19.7,0000.0,0019.59,0007.02,0003.37
2022-06-14 19:40:00,,0820.0,5.00,0.00,29.8,28.9,00.0,38.6,31.8,19.5,0000.0,0019.68,0007.04,0003.37
2022-06-14 19:41:00,,0820.0,4.99,0.00,29.8,28.8,00.0,38.6,31.7,19.5,0000.0,0019.61,0007.03,0003.37
2022-06-14 19:42:00,,0820.0,5.01,0.00,29.8,28.0,00.0,38.5,31.5,19.5,0000.0,0019.77,0007.05,0003.38
2022-06-14 19:43:00,,0820.0,5.00,0.00,29.7,27.2,00.0,38.5,31.3,19.5,0000.0,0019.41,0007.05,0003.39
2022-06-14 19:44:00,,0820.0,5.00,0.00,29.6,27.1,00.0,38.4,31.2,19.5,0000.0,0019.34,0007.02,0003.38
2022-06-14 19:45:00,,0820.0,5.02,0.00,29.5,27.2,00.0,38.4,31.2,19.7,0000.0,0019.20,0007.04,0003.37
2022-06-14 19:46:00,,0820.0,4.99,0.00,29.5,27.4,00.0,38.4,31.2,19.6,0000.0,0019.18,0007.00,0003.37
2022-06-14 19:47:00,,0819.9,4.99,0.00,29.5,27.5,00.0,38.4,31.3,19.4,0000.0,0019.17,0007.00,0003.38
2022-06-14 19:48:00,,0819.9,4.99,0.00,29.5,27.7,00.0,38.4,31.3,19.4,0000.0,0018.95,0007.06,0003.37
2022-06-14 19:49:00,,0819.9,5.00,0.00,29.5,27.9,00.0,38.4,31.3,19.6,0000.0,0019.17,0007.13,0003.36
2022-06-14 19:50:00,,0819.9,5.01,0.00,29.5,28.0,00.0,38.4,31.4,19.6,0000.0,0019.13,0007.14,0003.35
2022-06-14 19:51:00,,0819.9,5.00,0.00,29.5,28.2,00.0,38.4,31.4,19.7,0000.0,0019.59,0007.14,0003.34
2022-06-14 19:52:00,,0819.9,4.99,0.00,29.5,28.3,00.0,38.4,31.4,19.6,0000.0,0019.87,0007.04,0003.34
2022-06-14 19:53:00,,0819.9,5.01,0.00,29.5,28.4,00.0,38.4,31.5,19.6,0000.0,0019.66,0006.97,0003.34
2022-06-14 19:54:00,,0819.9,5.01,0.00,29.6,28.6,00.0,38.4,31.5,19.7,0000.0,0019.60,0006.96,0003.33
2022-06-14 19:55:00,,0820.0,5.00,0.00,29.6,28.6,00.0,38.4,31.6,19.6,0000.0,0019.98,0006.94,0003.32
2022-06-14 19:56:00,,0819.9,4.99,0.00,29.6,28.7,00.0,38.4,31.6,19.6,0000.0,0020.13,0006.93,0003.31
2022-06-14 19:57:00,,0819.9,4.99,0.00,29.7,28.8,00.0,38.5,31.7,19.6,0000.0,0020.50,0006.95,0003.31
2022-06-14 19:58:00,,0820.0,5.01,0.00,29.7,28.9,00.0,38.5,31.7,19.5,0000.0,0019.96,0006.96,0003.30
2022-06-14 19:59:00,,0820.0,5.01,0.00,29.7,28.9,00.0,38.5,31.7,19.5,0000.0,0019.90,0006.95,0003.30
